Preview of NWS' New Version of Forecast
This preview is not operational and should not be used for support decisions.

Regional Weather Roundup (RWR)

Issued by National Weather Service (NWS)

                            
000
ASUS45 KABQ 220910
RWRNM 
NEW MEXICO REGIONAL WEATHER ROUNDUP
NATIONAL WEATHER SERVICE ALBUQUERQUE NM
300 AM MDT MON APR 22 2019

NOTE: "FAIR" MEANS FEW OR NO CLOUDS BELOW 12,000 FEET AGL WITH NO
       SIGNIFICANT WEATHER OR OBSTRUCTIONS TO VISION.

      THIS PRODUCT IS RELEASED AS TWO VERSIONS.  ONE VERSION NEAR
      THE TOP OF THE HOUR CONTAINING PRELIMINARY DATA FROM ALBUQUERQUE
      AND OTHER STATIONS.  A FINAL VERSION WITH ADDITIONAL DATA IS 
      ISSUED ABOUT 10 MINUTES AFTER THE HOUR.
 
NMZ501-503-504-510>518-221000-
NORTHWEST PLATEAU/NORTHCENTRAL MOUNTAINS
  
CITY           SKY/WX    TMP DP  RH WIND       PRES   REMARKS
FARMINGTON     FAIR      48  17  29 NW3       30.00R                  
LOS ALAMOS       N/A     53  15  22 CALM      30.11S                  
SANTA FE       FAIR      49  24  37 N3        30.05S                  
TAOS           MOCLDY    40  20  44 NE3       30.13R                  
ANGEL FIRE       N/A     33  28  81 CALM      30.18R                  

$$
NMZ402-403-502-505>509-221000-
WESTCENTRAL MOUNTAINS/SOUTHWEST MOUNTAINS
  
CITY           SKY/WX    TMP DP  RH WIND       PRES   REMARKS
GALLUP         FAIR      36  19  50 CALM      30.08S                  
GRANTS         FAIR      35  21  57 NW5       30.10S WCI  31          
SILVER CITY    FAIR      51  22  32 NW9       30.04F                  

$$
NMZ407-409-411-412-221000-
SOUTHERN DESERTS
  
CITY           SKY/WX    TMP DP  RH WIND       PRES   REMARKS
DEMING         FAIR      64  30  27 W8        29.99F                  
LAS CRUCES     FAIR      65  30  26 W14       29.99S                  
HOLLOMAN AFB   FAIR      68  31  25 CALM      29.97S                  
ALAMOGORDO     FAIR      61  32  33 S6        29.98S                  
T OR C         FAIR      57  18  21 NW9       29.98F                  

$$
NMZ519>523-221000-
CENTRAL VALLEYS/CENTRAL HIGHLANDS
  
CITY           SKY/WX    TMP DP  RH WIND       PRES   REMARKS
ALBUQUERQUE    FAIR      54  26  34 S8        30.03R                  
DOUBLE EAGLE   FAIR      44  27  50 N3        30.05R                  
MORIARTY ARPT  FAIR      37  29  73 E5        30.08R WCI  34          
CLINES CORNERS FAIR      50  19  29 NW12      30.10S                  
BELEN          FAIR      49  29  46 NW7       30.02S                  
SOCORRO        FAIR      54  24  31 CALM      30.00S                  

$$
NMZ524>526-539-540-221000-
SOUTHCENTRAL MOUNTAINS
  
CITY           SKY/WX    TMP DP  RH WIND       PRES   REMARKS
RUIDOSO        FAIR      50  19  29 SW9       30.09F                  

$$
NMZ527>531-221000-
NORTHEAST HIGHLANDS/NORTHEAST PLAINS
  
CITY           SKY/WX    TMP DP  RH WIND       PRES   REMARKS
LAS VEGAS      CLOUDY    45  28  51 E13       30.08R                  
RATON          CLOUDY    49  36  61 N15       30.08R                  
CLAYTON        FAIR      47  38  71 N18       30.03R                  

$$
NMZ532>537-221000-
EASTCENTRAL PLAINS
  
CITY           SKY/WX    TMP DP  RH WIND       PRES   REMARKS
SANTA ROSA     FAIR      51  24  34 N7        29.97R                  
TUCUMCARI      FAIR      52  40  63 NE9       29.97R                  
CANNON AFB     FAIR      51  27  39 N20G26    29.97R                  
CLOVIS AIRPORT FAIR      52  36  54 N18       29.98R                  

$$
NMZ028-029-538-221000-
SOUTHEAST PLAINS
  
CITY           SKY/WX    TMP DP  RH WIND       PRES   REMARKS
ROSWELL        FAIR      56  23  27 CALM      29.89S                  
ARTESIA        FAIR      66  27  22 W16       29.89S                  
CARLSBAD       FAIR      65  36  34 SE5       29.88S                  
HOBBS          FAIR      59  54  82 S7        29.93S                  


$$